Location: *
(51.5000°N, 0.1100°W)
Time: 16:26:01
(UTC+00:00)

Cosmos 1356 Rocket - Pass Details

Date: 25 May 2024
Orbit: 530 x 579 km, 81.2° (Epoch: 16 June)

Event Time Altitude Azimuth Distance (km) Brightness Sun altitude
Exits shadow 01:17:01 26° 226° (SW) 1,130 4.4 -15.4°
Maximum altitude 01:19:00 48° 287° (WNW) 743 3.9 -15.3°
Drops below altitude 10° 01:23:02 10° 3° (N) 1,882 7.2 -15.1°
Sets 01:25:19 0° 9° (N) 2,792 8.6 -15.0°
